Ely, MN

7:58 PM CDT on August 27, 2016 (GMT -0500)
Ely Municipal

Weather History for KELO - November, 2012

Change the Weather History Date:

Friday, November 2, 2012

  Actual Average Record
Temperature  
Mean Temperature 26 °F -  
Max Temperature 32 °F 40 °F 59 °F (2000)
Min Temperature 19 °F 26 °F 19 °F (2012)
Degree Days  
Heating Degree Days 40    
Moisture  
Dew Point 20 °F    
Average Humidity 76    
Maximum Humidity 100    
Minimum Humidity 60    
Precipitation  
Precipitation 0.00 in - - ()
Sea Level Pressure  
Sea Level Pressure 30.13 in    
Wind  
Wind Speed 3 mph (NNE)    
Max Wind Speed 9 mph    
Max Gust Speed -    
Visibility 9 miles    
Events      
Averages and records for this station are not official NWS values.
T = Trace of Precipitation, MM = Missing Value Source: NWS Daily Summary

Daily Weather History Graph

Daily Weather History Graph

Search for Another Location

Airport or City:

Trip Planner

Search our weather history database for the weather conditions in past years. The results will help you decide how hot, cold, wet, or windy it might be!

Date:

Astronomy

Nov. 02, 2012 Rise Set
Actual Time 7:54 AM CDT 5:46 PM CDT
Civil Twilight 7:21 AM CDT 6:19 PM CDT
Nautical Twilight 6:44 AM CDT 6:56 PM CDT
Astronomical Twilight 6:08 AM CDT 7:31 PM CDT
Moon 8:25 PM CDT (11/2) 11:24 AM CDT (11/2)
Length of Visible Light 10h 57m
Length of Day
9h 52m
Waning Gibbous, 87% of the Moon is Illuminated
Nov 2
Waning Gibbous
Nov 6
Last Quarter
Nov 13
New
Nov 20
First Quarter
Nov 28
Full

Hourly Weather History & Observations

Time (CDT) Temp. Windchill Dew Point Humidity Pressure Visibility Wind Dir Wind Speed Gust Speed Precip Events Conditions
12:13 AM 26.6 °F 21.2 °F 21.2 °F 80% 30.06 in 10.0 mi NNW 4.6 mph - N/A   Clear
12:32 AM 26.6 °F - 21.2 °F 80% 30.06 in 10.0 mi Calm Calm - N/A   Mostly Cloudy
12:53 AM 26.6 °F - 21.2 °F 80% 30.06 in 10.0 mi Calm Calm - N/A   Mostly Cloudy
1:12 AM 26.6 °F 22.6 °F 21.2 °F 80% 30.06 in 10.0 mi NNE 3.5 mph - N/A   Mostly Cloudy
1:33 AM 24.8 °F 20.5 °F 21.2 °F 86% 30.07 in 10.0 mi North 3.5 mph - N/A   Mostly Cloudy
1:53 AM 24.8 °F 19.1 °F 21.2 °F 86% 30.07 in 10.0 mi North 4.6 mph - N/A   Mostly Cloudy
2:12 AM 24.8 °F 17.9 °F 19.4 °F 80% 30.07 in 10.0 mi North 5.8 mph - N/A   Mostly Cloudy
2:33 AM 24.8 °F 19.1 °F 19.4 °F 80% 30.07 in 10.0 mi North 4.6 mph - N/A   Scattered Clouds
2:53 AM 24.8 °F 19.1 °F 19.4 °F 80% 30.08 in 10.0 mi North 4.6 mph - N/A   Mostly Cloudy
3:12 AM 24.8 °F - 19.4 °F 80% 30.08 in 10.0 mi Calm Calm - N/A   Overcast
3:33 AM 24.8 °F - 19.4 °F 80% 30.08 in 10.0 mi Calm Calm - N/A   Overcast
3:53 AM 24.8 °F - 19.4 °F 80% 30.08 in 10.0 mi Calm Calm - N/A   Overcast
4:12 AM 24.8 °F 19.1 °F 19.4 °F 80% 30.08 in 10.0 mi NNW 4.6 mph - N/A   Overcast
4:24 AM 24.8 °F 17.9 °F 19.4 °F 80% 30.08 in 10.0 mi North 5.8 mph - N/A   Overcast
4:53 AM 24.8 °F 17.9 °F 19.4 °F 80% 30.08 in 10.0 mi NNE 5.8 mph - N/A   Overcast
5:13 AM 24.8 °F 20.5 °F 19.4 °F 80% 30.08 in 10.0 mi North 3.5 mph - N/A   Overcast
5:33 AM 24.8 °F 16.9 °F 19.4 °F 80% 30.08 in 10.0 mi NE 6.9 mph - N/A   Overcast
5:52 AM 24.8 °F 20.5 °F 19.4 °F 80% 30.09 in 10.0 mi North 3.5 mph - N/A   Overcast
6:13 AM 24.8 °F - 19.4 °F 80% 30.09 in 10.0 mi Calm Calm - N/A   Overcast
6:33 AM 24.8 °F 16.1 °F 19.4 °F 80% 30.10 in 10.0 mi NNW 8.1 mph - N/A   Overcast
6:52 AM 24.8 °F - 19.4 °F 80% 30.11 in 10.0 mi Calm Calm - N/A   Overcast
7:13 AM 23.0 °F 18.4 °F 19.4 °F 86% 30.12 in 10.0 mi North 3.5 mph - N/A   Overcast
7:33 AM 23.0 °F 18.4 °F 19.4 °F 86% 30.12 in 10.0 mi North 3.5 mph - N/A   Overcast
7:52 AM 23.0 °F 18.4 °F 19.4 °F 86% 30.12 in 10.0 mi North 3.5 mph - N/A   Overcast
8:13 AM 23.0 °F 17.0 °F 19.4 °F 86% 30.12 in 10.0 mi North 4.6 mph - N/A   Overcast
8:33 AM 23.0 °F - 19.4 °F 86% 30.13 in 10.0 mi Calm Calm - N/A   Overcast
8:52 AM 24.8 °F 19.1 °F 19.4 °F 80% 30.13 in 10.0 mi North 4.6 mph - N/A   Overcast
9:13 AM 24.8 °F 19.1 °F 19.4 °F 80% 30.13 in 10.0 mi North 4.6 mph - N/A   Overcast
9:33 AM 24.8 °F 19.1 °F 19.4 °F 80% 30.13 in 10.0 mi NNW 4.6 mph - N/A   Overcast
9:52 AM 24.8 °F 15.3 °F 19.4 °F 80% 30.14 in 10.0 mi NNE 9.2 mph - N/A   Overcast
10:13 AM 24.8 °F 19.1 °F 19.4 °F 80% 30.14 in 10.0 mi NNE 4.6 mph - N/A   Overcast
10:33 AM 24.8 °F 16.9 °F 19.4 °F 80% 30.14 in 10.0 mi North 6.9 mph - N/A   Overcast
10:52 AM 26.6 °F 19.1 °F 19.4 °F 74% 30.14 in 10.0 mi NE 6.9 mph - N/A   Mostly Cloudy
11:13 AM 26.6 °F 19.1 °F 19.4 °F 74% 30.14 in 10.0 mi ENE 6.9 mph - N/A   Clear
11:32 AM 26.6 °F 20.0 °F 19.4 °F 74% 30.15 in 10.0 mi NNE 5.8 mph - N/A   Clear
11:53 AM 28.4 °F 24.6 °F 19.4 °F 69% 30.15 in 10.0 mi NE 3.5 mph - N/A   Clear
12:13 PM 28.4 °F 20.4 °F 19.4 °F 69% 30.15 in 10.0 mi NNE 8.1 mph - N/A   Clear
12:32 PM 28.4 °F 24.6 °F 19.4 °F 69% 30.15 in 10.0 mi ENE 3.5 mph - N/A   Clear
12:53 PM 28.4 °F 22.2 °F 19.4 °F 69% 30.15 in 10.0 mi NNE 5.8 mph - N/A   Clear
1:13 PM 30.2 °F 25.4 °F 19.4 °F 64% 30.15 in 10.0 mi North 4.6 mph - N/A   Clear
1:32 PM 30.2 °F 25.4 °F 19.4 °F 64% 30.15 in 10.0 mi NE 4.6 mph - N/A   Clear
1:53 PM 32.0 °F 26.4 °F 19.4 °F 60% 30.14 in 10.0 mi NNE 5.8 mph - N/A   Clear
2:13 PM 32.0 °F 26.4 °F 19.4 °F 60% 30.14 in 10.0 mi ENE 5.8 mph - N/A   Clear
2:32 PM 32.0 °F 26.4 °F 19.4 °F 60% 30.14 in 10.0 mi East 5.8 mph - N/A   Clear
2:53 PM 32.0 °F 28.7 °F 19.4 °F 60% 30.13 in 10.0 mi ENE 3.5 mph - N/A   Clear
3:13 PM 32.0 °F 28.7 °F 19.4 °F 60% 30.13 in 10.0 mi ENE 3.5 mph - N/A   Clear
3:32 PM 32.0 °F - 19.4 °F 60% 30.13 in 10.0 mi Calm Calm - N/A   Clear
3:53 PM 32.0 °F 28.7 °F 19.4 °F 60% 30.13 in 10.0 mi North 3.5 mph - N/A   Clear
4:13 PM 32.0 °F - 19.4 °F 60% 30.13 in 10.0 mi Calm Calm - N/A   Clear
4:32 PM 32.0 °F - 19.4 °F 60% 30.13 in 10.0 mi Calm Calm - N/A   Clear
4:53 PM 30.2 °F 26.7 °F 21.2 °F 69% 30.13 in 10.0 mi NNE 3.5 mph - N/A   Clear
5:13 PM 30.2 °F 26.7 °F 21.2 °F 69% 30.14 in 10.0 mi ENE 3.5 mph - N/A   Clear
5:32 PM 30.2 °F - 21.2 °F 69% 30.14 in 1.5 mi Calm Calm - N/A   Haze
5:53 PM 30.2 °F 26.7 °F 21.2 °F 69% 30.14 in 10.0 mi NE 3.5 mph - N/A   Clear
6:13 PM 30.2 °F 26.7 °F 21.2 °F 69% 30.15 in 10.0 mi NE 3.5 mph - N/A   Clear
6:33 PM 28.4 °F - 21.2 °F 74% 30.15 in 5.0 mi Calm Calm - N/A   Haze
6:53 PM 28.4 °F 23.3 °F 21.2 °F 74% 30.16 in 5.0 mi NE 4.6 mph - N/A   Haze
7:13 PM 28.4 °F - 21.2 °F 74% 30.16 in 5.0 mi Calm Calm - N/A   Haze
7:32 PM 28.4 °F 24.6 °F 21.2 °F 74% 30.16 in 5.0 mi NE 3.5 mph - N/A   Haze
7:53 PM 28.4 °F - 21.2 °F 74% 30.16 in 7.0 mi Calm Calm - N/A   Clear
8:13 PM 28.4 °F - 21.2 °F 74% 30.15 in 10.0 mi Calm Calm - N/A   Clear
8:32 PM 26.6 °F 22.6 °F 21.2 °F 80% 30.16 in 7.0 mi NE 3.5 mph - N/A   Clear
8:53 PM 26.6 °F - 21.2 °F 80% 30.16 in 7.0 mi Calm Calm - N/A   Clear
9:13 PM 26.6 °F - 21.2 °F 80% 30.16 in 5.0 mi Calm Calm - N/A   Haze
9:32 PM 26.6 °F - 21.2 °F 80% 30.17 in 10.0 mi Calm Calm - N/A   Clear
9:53 PM 26.6 °F 22.6 °F 21.2 °F 80% 30.17 in 10.0 mi ENE 3.5 mph - N/A   Clear
10:13 PM 26.6 °F - 21.2 °F 80% 30.17 in 7.0 mi Calm Calm - N/A   Clear
10:32 PM 24.8 °F 20.5 °F 19.4 °F 80% 30.18 in 10.0 mi SSE 3.5 mph - N/A   Clear
10:53 PM 23.0 °F - 21.2 °F 93% 30.19 in 10.0 mi Calm Calm - N/A   Clear
11:12 PM 21.2 °F - 19.4 °F 93% 30.19 in 10.0 mi Calm Calm - N/A   Clear
11:33 PM 19.4 °F - 19.4 °F 100% 30.19 in 10.0 mi Calm Calm - N/A   Clear
11:53 PM 19.4 °F - 17.6 °F 93% 30.20 in 10.0 mi Calm Calm - N/A   Clear